EHI
0 1 3 4 4 4 6 9 11 11 11 12 11 8 4 2 0 0 0 0 0 0 0 1 4 9 10 7 3 0 1 3 4 3 1 0 0 0 0 0 0 0 0
0 2 4 5 5 6 7 8 9 10 11 11 11 9 6 3 1 0 0 0 0 0 1 2 5 9 11 8 3 0 0 2 3 3 2 1 0 0 0 0 0 0 0
0 2 4 5 5 6 8 8 8 9 9 10 10 8 6 3 1 0 0 0 0 0 1 3 5 7 7 5 2 0 0 1 2 2 2 1 0 0 0 0 0 0 0
0 1 2 4 4 6 8 8 7 7 7 7 6 5 5 3 1 0 0 0 0 0 1 3 4 4 3 1 0 0 0 0 1 1 1 0 0 0 0 0 0 0 0
0 0 1 2 4 5 6 6 6 6 6 4 3 3 4 3 2 1 0 0 0 0 1 2 3 2 1 0 0 0 0 0 0 0 0 0 0 0 0 0 0 0 1
0 0 1 2 3 4 4 4 6 7 6 4 3 3 3 3 2 1 0 0 0 0 1 1 1 1 1 0 0 1 1 0 0 0 0 0 0 0 0 0 0 0 1
0 0 1 2 3 3 3 4 6 7 7 4 3 3 3 2 1 0 0 0 0 0 1 0 0 0 0 0 0 0 1 1 0 0 0 0 0 0 0 0 0 0 1
0 0 1 2 3 3 3 4 6 7 6 4 3 2 1 1 0 0 0 0 0 1 1 0 0 0 0 0 0 0 0 0 0 0 0 0 0 0 0 0 0 0 0
0 0 0 1 2 2 3 3 5 5 4 3 3 1 0 0 0 0 1 1 1 2 1 1 1 1 1 1 1 1 1 0 0 0 0 0 0 0 0 1 0 0 0
0 0 0 0 1 1 1 2 3 4 3 3 3 1 1 0 0 0 0 1 2 3 2 2 3 3 3 3 3 2 2 1 0 0 0 0 1 1 1 1 0 0 0
0 0 0 0 0 0 0 1 2 2 2 2 2 2 1 0 0 0 0 1 3 3 4 5 5 4 4 4 4 3 2 1 0 0 0 0 1 2 2 2 1 0 0
0 0 0 0 0 0 0 0 1 1 1 1 1 1 1 0 0 0 1 2 4 5 5 6 6 6 5 4 3 3 2 1 0 0 0 0 1 2 3 2 1 0 0
0 0 0 1 1 1 0 0 0 0 0 0 0 0 0 0 0 0 1 2 4 4 4 5 5 5 4 3 2 1 1 0 0 0 0 1 2 2 3 3 1 0 0
0 1 1 1 1 1 0 0 0 0 0 0 0 0 0 0 0 0 0 1 2 3 3 2 2 2 1 1 1 0 0 0 0 0 0 1 2 3 4 3 2 1 0
1 2 2 1 1 0 0 0 0 0 0 0 0 0 0 0 0 0 0 0 1 1 2 1 0 0 0 0 0 0 0 0 0 0 0 1 3 3 4 4 3 2 1
2 2 1 0 0 0 0 0 0 0 0 1 1 0 0 0 0 0 0 0 0 0 1 2 1 0 0 0 0 0 0 0 0 0 0 1 3 3 4 6 4 2 2
1 1 1 0 0 1 1 1 1 0 0 1 1 0 0 0 0 0 1 0 0 1 2 3 2 1 1 1 1 0 0 0 0 0 0 1 2 2 4 6 5 3 3
0 0 0 0 1 2 2 2 2 1 0 1 1 0 0 0 0 0 0 0 0 2 3 3 3 3 2 2 1 0 0 0 0 0 0 0 0 0 1 3 4 4 3
0 0 0 0 1 3 3 3 2 1 0 0 0 0 0 0 0 1 1 0 0 1 2 3 4 3 2 2 1 0 0 0 0 0 0 0 0 0 0 1 2 3 2
0 0 0 0 1 2 2 1 1 0 0 0 0 0 0 0 0 1 1 0 0 0 1 1 2 1 0 0 0 0 0 0 0 0 0 0 0 0 0 0 1 1 1
0 0 0 0 1 1 1 0 0 0 0 0 1 1 0 0 1 1 1 0 0 0 0 0 0 0 0 0 0 0 0 0 0 0 0 0 0 0 0 0 0 0 0
1 1 0 0 0 0 0 0 0 0 0 0 1 1 0 1 1 1 0 0 0 0 0 0 0 0 0 0 0 0 0 0 0 0 0 0 0 0 0 0 0 0 0
2 2 1 1 0 0 0 0 0 0 0 0 1 1 0 1 2 2 1 0 0 0 0 0 0 0 0 0 0 0 0 0 0 0 0 0 0 0 0 0 0 0 0
2 2 2 1 0 0 0 0 1 1 1 0 0 0 1 2 3 3 2 1 1 0 0 0 1 1 1 1 1 1 1 1 0 0 0 0 0 0 0 0 0 0 0
2 2 2 2 1 1 0 1 2 2 1 0 0 1 2 3 3 3 1 0 0 0 1 1 2 2 2 3 2 1 1 1 1 0 0 0 0 0 0 0 0 0 0
2 2 3 4 3 2 1 2 3 3 1 0 1 2 3 3 3 2 1 0 0 1 2 2 3 3 3 3 2 1 1 1 1 1 1 0 0 0 0 0 0 0 0
Wind_Speed
1 2 4 4 5 5 5 7 9 10 10 11 11 11 11 12 12 12 12 12 11 11 11 11 10 10 10 12 14 13 12 11 11 11 11 11 11 11 11 10 10 7 11
3 2 4 5 5 6 6 6 9 10 10 10 10 10 11 11 11 11 11 11 11 11 10 10 10 10 10 12 12 12 12 11 11 11 10 10 10 10 10 10 10 7 11
3 2 4 5 6 7 7 7 9 10 10 10 10 10 10 10 10 10 10 10 10 10 10 10 10 10 10 11 11 11 11 10 10 10 9 5 7 9 9 10 10 10 11
4 2 3 5 6 7 7 8 9 10 10 9 10 10 10 10 9 9 9 9 9 10 10 9 9 9 10 10 10 10 10 10 9 8 4 4 5 9 9 10 10 10 10
3 1 3 6 6 7 8 8 8 9 8 9 9 10 10 9 9 8 8 8 9 9 9 9 9 9 9 9 10 10 10 9 9 6 4 3 3 7 9 10 10 10 10
2 1 2 6 7 7 8 8 7 7 7 7 8 8 9 8 8 8 8 7 7 8 8 8 8 8 8 9 9 9 9 9 7 4 3 3 4 7 9 9 10 10 10
2 2 0 3 7 8 8 7 6 6 6 6 7 7 7 7 7 7 7 7 6 7 7 7 8 8 8 8 9 9 9 9 5 4 4 3 4 7 9 9 9 9 10
3 2 2 3 6 7 7 6 6 6 5 5 6 6 6 6 5 5 5 5 5 5 6 6 7 7 8 8 8 8 8 8 6 5 4 4 6 8 9 8 8 9 9
3 3 2 3 3 5 5 5 5 5 5 5 5 5 5 5 4 3 3 3 4 4 4 5 5 7 7 8 8 8 8 7 4 3 4 3 6 8 9 9 9 9 9
3 3 2 3 3 2 2 3 4 4 4 4 4 4 4 4 3 2 1 2 2 3 3 4 4 5 6 7 8 8 8 6 4 4 2 3 6 7 8 8 8 9 9
1 2 2 2 2 2 2 1 2 3 3 3 3 4 3 2 2 1 1 1 1 1 2 3 3 4 4 5 6 7 5 3 4 3 2 4 6 7 8 8 9 8 9
1 0 1 1 2 2 1 2 2 2 2 2 2 2 2 2 2 2 3 2 1 1 1 1 2 2 2 1 2 3 2 3 3 3 3 6 7 7 8 8 9 8 8
2 1 1 1 1 2 2 2 2 2 2 2 2 2 2 2 2 2 2 3 3 3 2 2 1 1 2 2 1 1 2 2 2 2 3 6 6 7 7 8 9 9 8
2 1 1 1 2 1 2 2 2 1 1 2 2 2 2 1 2 2 1 2 2 2 2 2 2 2 2 2 2 2 2 2 2 1 2 5 6 6 7 8 8 9 9
3 2 2 2 1 1 2 1 2 1 1 1 1 2 2 1 1 1 2 2 2 2 2 2 2 2 2 2 1 2 2 2 2 2 1 4 5 5 6 6 7 7 8
3 2 2 2 2 2 2 1 1 1 1 2 2 2 2 1 1 1 1 2 2 1 1 1 2 2 1 1 1 1 1 1 2 2 1 2 3 4 5 6 6 7 7
3 3 3 3 3 2 2 1 1 2 2 1 1 1 2 2 1 1 1 1 1 1 1 1 2 2 1 1 1 1 1 1 1 1 1 1 1 2 4 5 6 6 7
3 3 2 3 3 3 2 2 2 2 2 1 1 2 2 2 2 2 1 1 1 1 1 1 1 1 1 1 1 1 1 1 1 1 1 1 1 1 2 3 3 4 5
3 3 3 2 3 2 2 2 2 2 2 1 1 1 2 2 1 1 1 1 1 1 1 1 2 1 1 1 1 1 0 0 1 1 1 1 1 1 1 1 3 3 4
3 3 3 2 2 3 3 2 2 2 2 1 1 1 1 1 1 1 1 1 1 1 2 1 2 2 1 1 1 1 1 0 0 1 1 1 1 2 1 2 2 3 4
3 3 3 3 2 3 2 2 1 1 1 1 1 1 1 2 2 2 1 1 1 1 1 1 1 2 2 1 2 2 2 1 0 1 1 1 1 1 1 2 2 2 2
4 3 3 3 3 3 2 2 1 1 1 0 1 1 1 1 1 1 2 1 1 1 2 2 1 1 1 1 1 1 1 2 2 1 1 1 1 1 2 2 2 2 2
4 5 4 3 3 2 3 2 2 2 2 2 1 1 1 1 1 2 2 1 1 1 1 1 1 2 1 1 1 2 2 1 1 2 1 1 1 1 2 2 3 3 3
5 4 3 3 3 2 3 3 3 2 1 1 0 0 1 2 1 1 1 1 1 1 1 1 1 1 2 1 0 0 1 2 1 1 2 1 1 2 2 2 2 3 3
5 5 4 3 2 2 3 3 3 2 1 1 1 1 1 2 1 1 1 1 1 1 1 1 2 1 1 1 1 0 0 0 1 1 2 2 2 1 2 2 2 2 3
4 4 4 4 3 3 3 3 4 3 2 2 1 1 1 1 1 1 1 1 1 1 1 1 1 1 1 1 1 1 1 1 1 1 2 2 2 2 2 1 2 3 3
Wind_Direction
210 210 170 145 130 127 122 122 126 127 127 127 130 132 135 139 144 146 148 149 150 151 151 152 151 147 144 150 150 149 150 151 154 157 156 154 154 153 154 154 152 150 151
165 179 164 150 139 133 125 121 126 127 129 129 130 131 135 139 142 146 148 151 153 154 153 153 152 150 145 142 147 150 154 157 158 160 160 159 159 159 160 161 160 159 159
141 167 163 154 146 136 131 129 128 130 128 129 134 135 136 139 142 147 150 152 153 156 157 156 155 153 151 151 153 155 158 161 161 164 161 156 165 168 169 169 166 165 164
144 159 166 156 148 143 136 132 128 128 128 129 132 138 138 138 142 148 152 154 156 160 162 163 163 162 159 159 162 162 163 164 162 162 157 162 176 180 181 178 174 170 167
116 122 170 159 155 149 140 135 130 129 129 130 133 138 139 141 143 147 152 156 160 163 165 167 168 170 168 167 168 169 169 170 166 165 156 169 182 190 188 183 178 173 173
96 81 167 159 155 144 138 136 133 130 129 130 133 138 141 144 147 151 154 160 165 168 170 172 172 172 173 172 171 173 175 175 169 163 163 178 187 196 190 183 180 179 178
93 47 64 143 152 143 136 135 133 129 130 131 132 133 137 141 143 147 155 163 168 170 173 176 178 176 178 179 177 178 178 179 166 163 174 183 188 193 192 189 187 187 184
94 54 33 105 138 141 138 135 134 130 129 132 132 129 126 126 133 141 148 158 166 172 178 182 184 183 183 182 181 179 181 184 173 173 178 186 195 200 198 195 194 195 191
74 61 32 50 100 131 135 135 134 129 124 125 124 122 118 115 119 126 136 150 165 169 176 186 191 191 187 183 181 182 185 184 166 170 183 185 200 202 201 202 201 200 197
62 49 37 35 49 68 92 123 126 123 121 113 110 110 108 115 118 114 126 152 165 169 187 202 202 195 193 191 189 188 188 183 166 170 179 195 201 203 201 201 200 198 201
76 33 34 32 39 51 65 99 102 107 98 89 84 87 78 55 45 39 62 134 182 204 216 217 210 196 187 191 192 190 189 164 160 171 183 205 204 208 205 205 202 203 203
198 286 33 29 29 42 54 51 42 51 52 56 54 53 56 53 42 35 8 351 341 344 304 223 193 179 162 155 183 178 160 157 163 177 195 208 211 212 208 201 200 198 195
196 182 71 65 52 60 57 57 49 43 44 46 49 52 57 53 35 28 12 354 355 5 11 23 66 108 115 127 133 130 141 151 162 185 202 209 213 214 209 199 201 196 193
143 158 103 103 90 77 74 62 62 52 46 46 41 52 68 61 45 34 19 3 11 15 30 45 74 91 99 112 133 142 154 161 165 181 207 213 217 218 209 200 200 197 198
160 164 154 139 122 98 85 69 76 59 54 55 47 47 71 81 63 41 22 19 25 32 44 57 75 88 92 93 125 152 170 175 172 182 211 215 213 213 212 207 201 201 200
169 165 153 144 142 120 109 101 79 73 68 62 49 42 68 77 79 61 34 26 27 36 49 70 83 88 90 96 97 122 157 166 168 182 202 227 220 206 206 210 206 206 204
167 159 153 150 139 132 128 125 93 78 73 65 49 43 64 73 80 75 54 27 14 31 57 66 68 79 97 97 88 103 130 163 169 176 189 200 223 221 209 204 211 215 215
156 148 150 148 139 144 135 119 92 79 74 55 45 43 47 51 60 68 53 18 11 38 57 76 69 78 73 86 87 71 83 124 167 178 186 180 181 217 224 211 217 223 222
154 144 134 129 138 141 123 103 90 79 72 56 51 48 36 40 55 78 52 16 35 54 52 73 77 97 100 98 108 92 79 137 178 196 206 204 202 211 229 245 241 236 234
137 134 131 122 118 117 104 89 76 68 57 54 51 35 42 41 53 77 72 29 65 75 58 59 85 81 91 101 83 58 41 356 135 217 230 216 211 216 225 241 252 251 246
139 138 138 133 129 121 107 110 102 73 38 43 39 33 46 48 47 61 48 41 56 81 78 78 93 81 59 74 86 44 19 13 335 250 234 217 237 238 231 232 235 244 251
163 161 153 154 146 143 140 134 135 131 119 108 33 37 38 53 49 60 64 57 59 78 62 58 81 95 54 53 99 94 5 352 345 299 240 218 240 241 244 236 228 233 244
179 181 174 170 157 151 137 111 92 69 46 39 28 20 10 43 61 61 70 74 62 78 87 69 87 122 127 56 67 131 149 235 307 328 303 257 243 232 252 253 237 239 240
190 177 161 159 153 145 136 138 141 140 155 203 169 44 10 28 48 61 75 81 80 80 80 73 84 107 132 141 59 40 157 161 163 314 326 323 287 257 255 261 258 245 242
178 167 163 153 148 144 146 154 145 147 163 123 81 60 28 15 19 31 80 86 81 75 80 70 68 74 112 137 149 160 156 75 139 193 281 314 324 291 267 257 254 250 244
164 161 159 153 161 160 154 153 158 163 154 129 91 61 12 8 359 355 69 80 81 75 75 86 98 94 97 109 117 122 141 159 192 193 237 275 292 298 296 274 263 258 248